DAL4522 PAOM-PAFA

Flight info

Callsign DAL4522
Flight time 1h 13m
Altitude 35000
Route OME J122 FAI
Aircraft B738/M-SDE2E3FGHIRWXY/LB1

Departure

Time 2026-04-20 12:22
Airport Nome Airport (PAOM)

Arrival

Time 2026-04-20 13:35
Airport Fairbanks International Airport (PAFA)
Time Latitude Longitude Altitude Speed Heading
2026-04-20 12:07 64.50787 -165.44115 31 ft 0 kts 194°
2026-04-20 12:16 64.50789 -165.44114 31 ft 2 kts 195°
2026-04-20 12:17 64.50812 -165.44093 31 ft 4 kts 217°
2026-04-20 12:17 64.50827 -165.44050 32 ft 4 kts 265°
2026-04-20 12:17 64.50826 -165.44021 32 ft 1 kts 290°
2026-04-20 12:19 64.50826 -165.44022 32 ft 1 kts 290°
2026-04-20 12:19 64.50842 -165.44123 31 ft 11 kts 290°
2026-04-20 12:19 64.50874 -165.44316 31 ft 13 kts 298°
2026-04-20 12:19 64.50931 -165.44480 29 ft 13 kts 311°
2026-04-20 12:20 64.50965 -165.44652 29 ft 13 kts 250°
2026-04-20 12:20 64.50906 -165.44806 26 ft 13 kts 221°
2026-04-20 12:20 64.50839 -165.44942 27 ft 13 kts 221°
2026-04-20 12:20 64.50781 -165.45087 28 ft 12 kts 237°
2026-04-20 12:21 64.50749 -165.45176 28 ft 3 kts 176°
2026-04-20 12:21 64.50751 -165.45131 29 ft 3 kts 42°
2026-04-20 12:21 64.50810 -165.45002 28 ft 36 kts 43°
2026-04-20 12:21 64.51205 -165.44186 33 ft 116 kts 41°
2026-04-20 12:22 64.51956 -165.42614 219 ft 166 kts 39°
2026-04-20 12:22 64.52871 -165.40684 922 ft 188 kts 47°
2026-04-20 12:22 64.53473 -165.37874 1678 ft 207 kts 78°
2026-04-20 12:22 64.53401 -165.34424 2282 ft 224 kts 104°
2026-04-20 12:23 64.52622 -165.31246 3023 ft 230 kts 126°
2026-04-20 12:23 64.51608 -165.28254 3631 ft 243 kts 127°
2026-04-20 12:23 64.50544 -165.25102 4385 ft 252 kts 124°
2026-04-20 12:23 64.49707 -165.21492 5194 ft 256 kts 103°
2026-04-20 12:24 64.49557 -165.17391 6087 ft 257 kts 87°
2026-04-20 12:24 64.49629 -165.13219 6859 ft 262 kts 85°
2026-04-20 12:24 64.49761 -165.08952 7590 ft 268 kts 84°
2026-04-20 12:24 64.49929 -165.04603 8375 ft 273 kts 83°
2026-04-20 12:25 64.50121 -165.00189 9176 ft 277 kts 83°
2026-04-20 12:25 64.50333 -164.95703 9934 ft 282 kts 83°
2026-04-20 12:25 64.50558 -164.91157 10691 ft 285 kts 83°
2026-04-20 12:25 64.50794 -164.86558 11399 ft 291 kts 82°
2026-04-20 12:26 64.51050 -164.81694 11621 ft 315 kts 82°
2026-04-20 12:26 64.51329 -164.76470 11823 ft 337 kts 82°
2026-04-20 12:26 64.51628 -164.70892 12067 ft 357 kts 82°
2026-04-20 12:26 64.51939 -164.65104 12630 ft 365 kts 82°
2026-04-20 12:27 64.52256 -164.59220 13370 ft 369 kts 82°
2026-04-20 12:27 64.52574 -164.53284 14047 ft 372 kts 83°
2026-04-20 12:27 64.52891 -164.47360 14689 ft 376 kts 83°
2026-04-20 12:27 64.53214 -164.41294 15328 ft 380 kts 83°
2026-04-20 12:28 64.53538 -164.35163 15947 ft 384 kts 83°
2026-04-20 12:28 64.53863 -164.28967 16562 ft 389 kts 83°
2026-04-20 12:28 64.54190 -164.22686 17167 ft 393 kts 83°
2026-04-20 12:28 64.54518 -164.16344 17774 ft 397 kts 83°
2026-04-20 12:29 64.54847 -164.09917 18315 ft 402 kts 83°
2026-04-20 12:29 64.55175 -164.03440 18836 ft 405 kts 83°
2026-04-20 12:29 64.55504 -163.96900 19375 ft 409 kts 83°
2026-04-20 12:29 64.55833 -163.90304 19898 ft 412 kts 83°
2026-04-20 12:30 64.56162 -163.83648 20393 ft 416 kts 83°
2026-04-20 12:30 64.56490 -163.76937 20897 ft 420 kts 83°
2026-04-20 12:30 64.56818 -163.70167 21390 ft 423 kts 84°
2026-04-20 12:30 64.57147 -163.63321 21874 ft 427 kts 84°
2026-04-20 12:31 64.57474 -163.56428 22355 ft 430 kts 84°
2026-04-20 12:31 64.57801 -163.49483 22817 ft 434 kts 84°
2026-04-20 12:31 64.58123 -163.42557 23253 ft 437 kts 84°
2026-04-20 12:31 64.58448 -163.35495 23621 ft 441 kts 84°
2026-04-20 12:32 64.58777 -163.28281 23992 ft 444 kts 84°
2026-04-20 12:32 64.59100 -163.21114 24359 ft 447 kts 84°
2026-04-20 12:32 64.59417 -163.13988 24707 ft 450 kts 84°
2026-04-20 12:32 64.59737 -163.06725 25053 ft 453 kts 84°
2026-04-20 12:33 64.60056 -162.99407 25400 ft 456 kts 84°
2026-04-20 12:33 64.60374 -162.92032 25725 ft 459 kts 84°
2026-04-20 12:33 64.60689 -162.84609 26055 ft 462 kts 85°
2026-04-20 12:33 64.61003 -162.77142 26382 ft 464 kts 85°
2026-04-20 12:34 64.61315 -162.69633 26692 ft 467 kts 85°
2026-04-20 12:34 64.61625 -162.62070 26956 ft 470 kts 85°
2026-04-20 12:34 64.61933 -162.54471 27273 ft 473 kts 85°
2026-04-20 12:34 64.62238 -162.46815 27567 ft 475 kts 85°
2026-04-20 12:35 64.62542 -162.39121 27862 ft 478 kts 85°
2026-04-20 12:35 64.62842 -162.31390 28146 ft 480 kts 85°
2026-04-20 12:35 64.63141 -162.23615 28423 ft 483 kts 85°
2026-04-20 12:35 64.63436 -162.15804 28714 ft 484 kts 85°
2026-04-20 12:36 64.63728 -162.07973 29112 ft 484 kts 85°
2026-04-20 12:36 64.64016 -162.00162 29549 ft 483 kts 86°
2026-04-20 12:36 64.64299 -161.92363 29890 ft 483 kts 86°
2026-04-20 12:36 64.64577 -161.84562 30191 ft 483 kts 86°
2026-04-20 12:37 64.64851 -161.76770 30514 ft 482 kts 86°
2026-04-20 12:37 64.65031 -161.71605 30739 ft 481 kts 86°
2026-04-20 12:37 64.65297 -161.63838 31074 ft 480 kts 86°
2026-04-20 12:37 64.65559 -161.56095 31399 ft 479 kts 86°
2026-04-20 12:38 64.65816 -161.48340 31698 ft 479 kts 86°
2026-04-20 12:38 64.66069 -161.40593 31993 ft 478 kts 86°
2026-04-20 12:38 64.66318 -161.32870 32299 ft 477 kts 86°
2026-04-20 12:38 64.66562 -161.25146 32604 ft 476 kts 86°
2026-04-20 12:39 64.67037 -161.09737 33175 ft 476 kts 86°
2026-04-20 12:39 64.67269 -161.02023 33466 ft 475 kts 86°
2026-04-20 12:39 64.67495 -160.94343 33725 ft 475 kts 86°
2026-04-20 12:40 64.67718 -160.86642 33932 ft 475 kts 86°
2026-04-20 12:40 64.67937 -160.78952 34126 ft 475 kts 86°
2026-04-20 12:40 64.68152 -160.71246 34316 ft 475 kts 86°
2026-04-20 12:40 64.68363 -160.63540 34530 ft 475 kts 86°
2026-04-20 12:41 64.68577 -160.55840 34645 ft 477 kts 86°
2026-04-20 12:41 64.68994 -160.40247 34647 ft 484 kts 86°
2026-04-20 12:42 64.69389 -160.24484 34648 ft 487 kts 86°
2026-04-20 12:42 64.69768 -160.08640 34645 ft 489 kts 86°
2026-04-20 12:43 64.70128 -159.92874 34640 ft 489 kts 87°
2026-04-20 12:43 64.70474 -159.76992 34643 ft 488 kts 87°
2026-04-20 12:44 64.70802 -159.61165 34650 ft 487 kts 87°
2026-04-20 12:44 64.71113 -159.45381 34647 ft 485 kts 87°
2026-04-20 12:45 64.71405 -159.29660 34657 ft 483 kts 87°
2026-04-20 12:45 64.71679 -159.14007 34662 ft 481 kts 88°
2026-04-20 12:46 64.71937 -158.98395 34657 ft 480 kts 88°
2026-04-20 12:46 64.72177 -158.82822 34634 ft 479 kts 88°
2026-04-20 12:47 64.72401 -158.67250 34618 ft 479 kts 88°
2026-04-20 12:47 64.72607 -158.51768 34620 ft 480 kts 88°
2026-04-20 12:48 64.72799 -158.36141 34650 ft 481 kts 88°
2026-04-20 12:48 64.72974 -158.20493 34665 ft 482 kts 88°
2026-04-20 12:49 64.73134 -158.04803 34668 ft 483 kts 89°
2026-04-20 12:49 64.73276 -157.89078 34663 ft 484 kts 89°
2026-04-20 12:50 64.73400 -157.73314 34630 ft 484 kts 89°
2026-04-20 12:50 64.73506 -157.57540 34592 ft 485 kts 89°
2026-04-20 12:51 64.73598 -157.41735 34604 ft 486 kts 89°
2026-04-20 12:51 64.73676 -157.25929 34649 ft 486 kts 89°
2026-04-20 12:52 64.73735 -157.10122 34664 ft 485 kts 90°
2026-04-20 12:52 64.73777 -156.94332 34665 ft 485 kts 90°
2026-04-20 12:53 64.73807 -156.78561 34665 ft 484 kts 89°
2026-04-20 12:53 64.74212 -156.62843 34665 ft 484 kts 85°
2026-04-20 12:54 64.74827 -156.47164 34660 ft 483 kts 84°
2026-04-20 12:54 64.75415 -156.31592 34666 ft 483 kts 85°
2026-04-20 12:55 64.75955 -156.15821 34672 ft 482 kts 85°
2026-04-20 12:55 64.76453 -156.00258 34674 ft 482 kts 86°
2026-04-20 12:56 64.76933 -155.84594 34673 ft 482 kts 86°
2026-04-20 12:56 64.77399 -155.68906 34681 ft 482 kts 86°
2026-04-20 12:57 64.77850 -155.53216 34684 ft 482 kts 86°
2026-04-20 12:57 64.78282 -155.37615 34690 ft 482 kts 86°
2026-04-20 12:58 64.78697 -155.22034 34692 ft 483 kts 86°
2026-04-20 12:58 64.79099 -155.06322 34692 ft 483 kts 86°
2026-04-20 12:59 64.79484 -154.90592 34695 ft 483 kts 87°
2026-04-20 12:59 64.79853 -154.74857 34698 ft 483 kts 87°
2026-04-20 13:00 64.80205 -154.59128 34697 ft 483 kts 87°
2026-04-20 13:00 64.80529 -154.43918 34705 ft 483 kts 87°
2026-04-20 13:01 64.80849 -154.28174 34695 ft 483 kts 87°
2026-04-20 13:01 64.81152 -154.12407 34703 ft 483 kts 88°
2026-04-20 13:02 64.81438 -153.96640 34709 ft 484 kts 88°
2026-04-20 13:02 64.81708 -153.80857 34707 ft 484 kts 88°
2026-04-20 13:03 64.81961 -153.65055 34707 ft 484 kts 88°
2026-04-20 13:03 64.82198 -153.49264 34707 ft 484 kts 88°
2026-04-20 13:04 64.82417 -153.33457 34715 ft 484 kts 88°
2026-04-20 13:04 64.82620 -153.17650 34713 ft 484 kts 88°
2026-04-20 13:05 64.82806 -153.01843 34718 ft 484 kts 89°
2026-04-20 13:05 64.82695 -152.86058 34728 ft 483 kts 90°
2026-04-20 13:06 64.82912 -152.70273 34721 ft 483 kts 87°
2026-04-20 13:06 64.83199 -152.54493 34719 ft 484 kts 88°
2026-04-20 13:07 64.83382 -152.38699 34729 ft 484 kts 89°
2026-04-20 13:07 64.83488 -152.23507 34730 ft 484 kts 89°
2026-04-20 13:08 64.83566 -152.07742 34716 ft 479 kts 89°
2026-04-20 13:08 64.83630 -151.92212 34728 ft 474 kts 90°
2026-04-20 13:09 64.83680 -151.76666 34158 ft 479 kts 90°
2026-04-20 13:09 64.83704 -151.68853 33567 ft 478 kts 90°
2026-04-20 13:09 64.83726 -151.61033 32864 ft 479 kts 89°
2026-04-20 13:09 64.83742 -151.53212 32177 ft 478 kts 89°
2026-04-20 13:10 64.83752 -151.45413 31494 ft 476 kts 89°
2026-04-20 13:10 64.83757 -151.37686 30805 ft 469 kts 89°
2026-04-20 13:10 64.83756 -151.30045 30141 ft 467 kts 89°
2026-04-20 13:10 64.83751 -151.22419 29438 ft 466 kts 89°
2026-04-20 13:11 64.83743 -151.14859 28918 ft 459 kts 89°
2026-04-20 13:11 64.83731 -151.07413 28395 ft 453 kts 90°
2026-04-20 13:11 64.83716 -151.00072 27899 ft 447 kts 90°
2026-04-20 13:11 64.83696 -150.92809 27397 ft 441 kts 90°
2026-04-20 13:12 64.83673 -150.85655 26905 ft 436 kts 90°
2026-04-20 13:12 64.83648 -150.78561 26411 ft 431 kts 90°
2026-04-20 13:12 64.83619 -150.71557 25922 ft 427 kts 90°
2026-04-20 13:12 64.83588 -150.64604 25437 ft 423 kts 90°
2026-04-20 13:13 64.83555 -150.57806 24969 ft 420 kts 91°
2026-04-20 13:13 64.83517 -150.50889 24496 ft 416 kts 91°
2026-04-20 13:13 64.83478 -150.44220 24036 ft 413 kts 91°
2026-04-20 13:13 64.83450 -150.39675 23723 ft 411 kts 91°
2026-04-20 13:14 64.83391 -150.30743 23056 ft 407 kts 91°
2026-04-20 13:14 64.83344 -150.24210 22550 ft 403 kts 91°
2026-04-20 13:14 64.83294 -150.17663 22098 ft 399 kts 92°
2026-04-20 13:14 64.83242 -150.11180 21639 ft 395 kts 92°
2026-04-20 13:15 64.83187 -150.04763 21189 ft 391 kts 92°
2026-04-20 13:15 64.83130 -149.98413 20740 ft 388 kts 92°
2026-04-20 13:15 64.83071 -149.92111 20305 ft 385 kts 92°
2026-04-20 13:15 64.83010 -149.85850 19853 ft 382 kts 93°
2026-04-20 13:16 64.82946 -149.79607 19415 ft 382 kts 93°
2026-04-20 13:16 64.82880 -149.73376 18981 ft 381 kts 93°
2026-04-20 13:16 64.82810 -149.67126 18552 ft 387 kts 93°
2026-04-20 13:16 64.82736 -149.60764 18121 ft 393 kts 94°
2026-04-20 13:17 64.82660 -149.54355 17600 ft 391 kts 94°
2026-04-20 13:17 64.82582 -149.48011 17142 ft 386 kts 94°
2026-04-20 13:17 64.82503 -149.41742 16697 ft 382 kts 94°
2026-04-20 13:17 64.82422 -149.35543 16294 ft 377 kts 94°
2026-04-20 13:18 64.82340 -149.29467 16024 ft 369 kts 94°
2026-04-20 13:18 64.82256 -149.23478 15636 ft 366 kts 94°
2026-04-20 13:18 64.82170 -149.17508 15221 ft 366 kts 94°
2026-04-20 13:18 64.82080 -149.11523 14784 ft 367 kts 94°
2026-04-20 13:19 64.81987 -149.05491 14374 ft 373 kts 94°
2026-04-20 13:19 64.81890 -148.99362 13942 ft 378 kts 94°
2026-04-20 13:19 64.81791 -148.93199 13494 ft 376 kts 94°
2026-04-20 13:19 64.81691 -148.87084 13014 ft 373 kts 94°
2026-04-20 13:20 64.81590 -148.81031 12594 ft 369 kts 94°
2026-04-20 13:20 64.81487 -148.75042 12162 ft 366 kts 94°
2026-04-20 13:20 64.81381 -148.69092 11756 ft 363 kts 94°
2026-04-20 13:20 64.81278 -148.63326 11629 ft 344 kts 94°
2026-04-20 13:21 64.81178 -148.57852 11459 ft 327 kts 95°
2026-04-20 13:21 64.81208 -148.52654 11260 ft 315 kts 78°
2026-04-20 13:21 64.82086 -148.48085 11061 ft 304 kts 53°
2026-04-20 13:21 64.83310 -148.44075 10811 ft 301 kts 51°
2026-04-20 13:22 64.84536 -148.40114 10555 ft 299 kts 51°
2026-04-20 13:22 64.85762 -148.36164 10279 ft 300 kts 51°
2026-04-20 13:22 64.86993 -148.32188 10010 ft 300 kts 51°
2026-04-20 13:22 64.88217 -148.28224 9731 ft 299 kts 51°
2026-04-20 13:23 64.89434 -148.24264 9426 ft 298 kts 51°
2026-04-20 13:23 64.90643 -148.20312 9118 ft 296 kts 51°
2026-04-20 13:23 64.91438 -148.17705 8919 ft 296 kts 51°
2026-04-20 13:23 64.92634 -148.13771 8611 ft 294 kts 51°
2026-04-20 13:24 64.93820 -148.09856 8312 ft 293 kts 51°
2026-04-20 13:24 64.94998 -148.05953 8007 ft 292 kts 51°
2026-04-20 13:24 64.96168 -148.02055 7729 ft 290 kts 51°
2026-04-20 13:24 64.97330 -147.98171 7434 ft 289 kts 51°
2026-04-20 13:25 64.98482 -147.94300 7148 ft 288 kts 51°
2026-04-20 13:25 64.99630 -147.90432 6869 ft 287 kts 51°
2026-04-20 13:25 65.00771 -147.86573 6584 ft 286 kts 51°
2026-04-20 13:25 65.01908 -147.82716 6316 ft 285 kts 51°
2026-04-20 13:26 65.03036 -147.78865 6033 ft 285 kts 51°
2026-04-20 13:26 65.04164 -147.75002 5716 ft 284 kts 51°
2026-04-20 13:26 65.05283 -147.71169 5425 ft 283 kts 51°
2026-04-20 13:26 65.06400 -147.67348 5159 ft 281 kts 51°
2026-04-20 13:27 65.07486 -147.63625 5053 ft 266 kts 51°
2026-04-20 13:27 65.08499 -147.60112 4998 ft 250 kts 54°
2026-04-20 13:27 65.08928 -147.57645 4978 ft 242 kts 81°
2026-04-20 13:27 65.08426 -147.52677 5023 ft 227 kts 127°
2026-04-20 13:28 65.07530 -147.49655 5006 ft 223 kts 131°
2026-04-20 13:28 65.06537 -147.46907 4967 ft 215 kts 148°
2026-04-20 13:28 65.05264 -147.45807 5001 ft 187 kts 194°
2026-04-20 13:28 65.04105 -147.46851 5033 ft 183 kts 214°
2026-04-20 13:29 65.02950 -147.48256 4975 ft 181 kts 216°
2026-04-20 13:29 65.01896 -147.49657 4987 ft 169 kts 217°
2026-04-20 13:29 65.00916 -147.51038 4982 ft 164 kts 220°
2026-04-20 13:29 64.99963 -147.52565 4979 ft 168 kts 223°
2026-04-20 13:30 64.99013 -147.54209 4763 ft 168 kts 223°
2026-04-20 13:30 64.98085 -147.55867 4552 ft 168 kts 224°
2026-04-20 13:30 64.97157 -147.57555 4290 ft 168 kts 224°
2026-04-20 13:30 64.96289 -147.59142 4075 ft 168 kts 223°
2026-04-20 13:31 64.95361 -147.60838 3834 ft 169 kts 223°
2026-04-20 13:31 64.94430 -147.62547 3593 ft 170 kts 223°
2026-04-20 13:31 64.93512 -147.64233 3337 ft 162 kts 223°
2026-04-20 13:31 64.92656 -147.65804 3104 ft 150 kts 223°
2026-04-20 13:32 64.91851 -147.67282 2917 ft 145 kts 223°
2026-04-20 13:32 64.91067 -147.68722 2728 ft 144 kts 222°
2026-04-20 13:32 64.90270 -147.70188 2505 ft 146 kts 221°
2026-04-20 13:32 64.89468 -147.71661 2293 ft 147 kts 220°
2026-04-20 13:33 64.88924 -147.72660 2148 ft 147 kts 220°
2026-04-20 13:33 64.87846 -147.74639 1827 ft 150 kts 219°
2026-04-20 13:33 64.87023 -147.76152 1587 ft 151 kts 219°
2026-04-20 13:33 64.86198 -147.77668 1356 ft 151 kts 218°
2026-04-20 13:34 64.85368 -147.79193 1129 ft 152 kts 218°
2026-04-20 13:34 64.84535 -147.80744 912 ft 152 kts 219°
2026-04-20 13:34 64.83706 -147.82274 732 ft 151 kts 217°
2026-04-20 13:34 64.82874 -147.83793 544 ft 151 kts 217°
2026-04-20 13:35 64.82064 -147.85283 448 ft 138 kts 217°
2026-04-20 13:35 64.81539 -147.86248 448 ft 65 kts 218°
2026-04-20 13:35 64.81268 -147.86747 429 ft 35 kts 218°
2026-04-20 13:35 64.81177 -147.87021 447 ft 15 kts 284°
2026-04-20 13:36 64.81254 -147.87093 441 ft 14 kts 34°
2026-04-20 13:36 64.81305 -147.87005 440 ft 13 kts 37°
2026-04-20 13:36 64.81470 -147.86700 440 ft 13 kts 38°
2026-04-20 13:37 64.81538 -147.86576 434 ft 12 kts 38°
2026-04-20 13:37 64.81604 -147.86455 442 ft 12 kts 38°
2026-04-20 13:37 64.81678 -147.86402 436 ft 12 kts 336°
2026-04-20 13:37 64.81740 -147.86519 433 ft 11 kts 321°